This is the latest recevied weather packets stored in our database for station/object N4QD-13. If no packets are shown the sender has not sent any weather packets the latest 10 day(s).
| Time | Temp. | Humidity | Pressure | Rain* | Wind** | Luminosity | Snow |
|---|---|---|---|---|---|---|---|
| 1777850482 | 16.67° C | 32% | 1015.3 hPa | 0 mm | - | 29 W/m² | - |
| 1777850180 | 16.67° C | 31% | 1015.3 hPa | 0 mm | - | 31 W/m² | - |
| 1777849876 | 17.78° C | 30% | 1015.3 hPa | 0 mm | - | 36 W/m² | - |
| 1777849574 | 18.33° C | 27% | 1015.1 hPa | 0 mm | - | 42 W/m² | - |
| 1777849271 | 18.33° C | 28% | 1015.1 hPa | 0 mm | - | 46 W/m² | - |
| 1777848968 | 18.33° C | 32% | 1015.1 hPa | 0 mm | - | 56 W/m² | - |
| 1777848668 | 18.33° C | 29% | 1015.2 hPa | 0 mm | - | 81 W/m² | - |
| 1777848366 | 17.78° C | 28% | 1015.1 hPa | 0 mm | - | 93 W/m² | - |
| 1777848063 | 17.78° C | 27% | 1015.1 hPa | 0 mm | - | 51 W/m² | - |
| 1777847761 | 18.33° C | 29% | 1015.2 hPa | 0 mm | - | 117 W/m² | - |
| 1777847456 | 17.78° C | 29% | 1015 hPa | 0 mm | - | 134 W/m² | - |
| 1777847154 | 18.33° C | 29% | 1015 hPa | 0 mm | - | 147 W/m² | - |
| 1777846852 | 18.33° C | 30% | 1015.1 hPa | 0 mm | - | 173 W/m² | - |
| 1777846550 | 18.33° C | 29% | 1015 hPa | 0 mm | - | 177 W/m² | - |
| 1777846247 | 18.33° C | 27% | 1015.3 hPa | 0 mm | - | 200 W/m² | - |
| 1777845943 | 18.33° C | 28% | 1015.2 hPa | 0 mm | - | 220 W/m² | - |
| 1777845640 | 18.33° C | 28% | 1015.2 hPa | 0 mm | - | 239 W/m² | - |
| 1777845337 | 18.33° C | 31% | 1015.5 hPa | 0 mm | - | 260 W/m² | - |
| 1777845034 | 18.33° C | 31% | 1015.3 hPa | 0 mm | - | 281 W/m² | - |
| 1777844733 | 17.78° C | 30% | 1015.3 hPa | 0 mm | - | 288 W/m² | - |
| 1777844429 | 17.78° C | 33% | 1015.2 hPa | 0 mm | - | 297 W/m² | - |
| 1777844127 | 17.78° C | 31% | 1015.2 hPa | 0 mm | - | 293 W/m² | - |
| 1777843824 | 18.89° C | 29% | 1015.4 hPa | 0 mm | - | 332 W/m² | - |
| 1777843521 | 17.78° C | 32% | 1015.5 hPa | 0 mm | - | 365 W/m² | - |
| 1777843219 | 18.33° C | 30% | 1015.3 hPa | 0 mm | - | 393 W/m² | - |
* Rain latest hour (hover to see other rain measurements)
** Current wind speed in m/s (hover to see current wind gust speed)